www.pogodaiklimat.ru

Погода и климат >> Архив погоды >> Южная Африка >> Skukuza


ПОГОДА в Skukuza

  • Прогноз погоды в Skukuza
  • Монитор погоды в Skukuza
  • Климат города

АРХИВ ПОГОДЫ в Skukuza

Время (UTC), дата Ветер
(напр.,м/с)
 
Видим.   Явления Облачность Т
(С)
Тd
(С)
f
(%)
Тe
(С)
Тes
(С)
Комфортность P
(гПа)
Po
(гПа)
Тmin
(С)
Tmax
(С)
R
(мм)
R24
(мм)
S
(см)
00 12.12 З 2 н/о н/о +18.0 +15.8 87 +19 +19 851.8 980.6 +17.9 +27.9
03 12.12 В 2 н/о н/о +18.0 +16.0 88 +19 +19 851.2 979.9 +17.7 +27.9
06 12.12 З 1 н/о н/о +22.0 +16.5 71 +26 +26 душно 853.8 980.9 +17.7
09 12.12 СВ 2 н/о н/о +30.1 +16.4 44 +33 +33 душно 855.2 978.6 +17.7 +30.1
12 12.12 СВ 3 н/о н/о +37.3 +13.1 24 +38 +38 душно 854.7 975.0 +17.7 +38.0
06 13.12 ЮЗ 2 н/о н/о +21.3 +18.9 86 +26 +26 душно 853.4 980.8 +20.2 4
09 13.12 СВ 1 н/о н/о +22.0 +19.5 86 +28 +28 душно 854.5 981.7 +20.2 +23.2
12 13.12 СВ 1 н/о н/о +25.4 +19.1 68 +30 +30 душно 851.0 976.3 +20.2 +26.2 0.8
15 13.12 СВ 2 н/о н/о +30.4 +17.4 46 +34 +34 очень
душно
851.0 974.1 +25.3 +30.4
18 13.12 В 2 н/о н/о +24.5 +17.6 65 +29 +29 душно 849.3 974.9 +24.5 +30.4 0.8
21 13.12 ЮЗ 1 н/о н/о +19.9 +17.7 87 +24 +24 комфорт 848.6 976.2 +19.9 +30.4
00 14.12 штиль 0 н/о н/о +19.7 +17.3 86 +22 +22 комфорт 847.8 975.4 +19.7 +30.4 0.8
03 14.12 З 1 н/о н/о +18.8 +16.6 87 +21 +21 комфорт 847.5 975.5 +18.8 +30.4
09 14.12 Ю 4 н/о н/о +24.9 +16.2 58 +28 +28 жарко 855.4 981.3 +18.6 +26.4
12 14.12 ЮВ 3 н/о н/о +24.8 +16.6 60 +28 +28 жарко 855.1 981.0 +18.6 +27.2
15 14.12 ЮВ 3 н/о н/о +22.6 +15.3 63 +26 +26 жарко 854.9 981.8 +22.5 +27.2
18 14.12 Ю 3 н/о н/о +21.7 +15.1 66 +25 +25 комфорт 857.2 984.7 +20.6 +27.2
21 14.12 Ю 2 н/о н/о +19.1 +15.2 78 +21 +21 комфорт 859.0 988.0 +19.0 +27.2
00 15.12 Ю 3 н/о н/о +17.1 +14.4 84 +17 +17 858.5 988.4 +17.1 +27.2
03 15.12 ЮЗ 2 н/о н/о +17.1 +14.0 82 +17 +17 858.9 988.9 +17.1 +27.2
06 15.12 ЮЗ 2 н/о н/о +18.6 +13.9 74 +20 +20 861.8 991.3 +17.0
09 15.12 Ю 1 н/о н/о +21.0 +15.1 69 +25 +25 комфорт 862.9 991.3 +17.0 +21.0
12 15.12 ЮВ 2 н/о н/о +22.9 +14.6 59 +27 +27 душно 862.3 989.7 +17.0 +24.3
15 15.12 ЮЗ 2 н/о н/о +22.2 +15.1 64 +26 +26 душно 860.8 988.4 +21.9 +24.3
18 15.12 Ю 2 н/о н/о +20.4 +15.6 74 +24 +24 комфорт 860.2 988.7 +20.4 +24.3
21 15.12 ЮВ 1 н/о н/о +19.9 +14.1 69 +23 +23 комфорт 860.8 989.6 +19.9 +24.3
00 16.12 В 1 н/о н/о +18.9 +14.6 76 +21 +21 комфорт 859.1 988.2 +18.9 +24.3
03 16.12 ЮЗ 1 н/о н/о +16.9 +14.5 86 +18 +18 858.9 989.0 +16.2 +24.3
06 16.12 СВ 2 н/о н/о +21.5 +13.2 59 +24 +24 комфорт 861.6 989.6 +16.2
09 16.12 СЗ 3 н/о н/о +27.1 +12.5 40 +29 +29 жарко 862.3 987.6 +16.2 +27.4
12 16.12 С 3 н/о н/о +30.9 +12.1 32 +32 +32 жарко 860.4 983.8 +16.2 +32.1
15 16.12 В 2 н/о н/о +33.3 +11.6 27 +33 +33 жарко 859.7 981.9 +31.3 +34.0
18 16.12 В 1 н/о н/о +25.0 +12.7 46 +27 +27 жарко 857.0 982.9 +25.0 +34.0
21 16.12 Ю 1 н/о н/о +19.7 +15.2 75 +23 +23 комфорт 855.0 983.3 +19.1 +34.0
00 17.12 штиль 0 н/о н/о +16.9 +14.3 85 +17 +17 853.3 982.8 +16.9 +34.0
03 17.12 штиль 0 н/о н/о +15.3 +13.3 88 +15 +15 852.8 983.0 +15.2 +34.0
06 17.12 В 1 н/о н/о +25.4 +15.3 54 +28 +28 жарко 857.9 983.7 +15.2
09 17.12 З 2 н/о н/о +33.1 +13.5 31 +34 +34 очень
жарко
859.5 981.8 +15.2 +33.1
12 17.12 ЮВ 2 н/о н/о +38.3 +11.9 21 +38 +38 очень
жарко
859.0 979.0 +15.2 +38.7
15 17.12 ЮВ 3 н/о н/о +37.3 +11.8 22 +37 +37 очень
жарко
857.1 977.4 +37.3 +39.5
18 17.12 ЮВ 4 н/о н/о +27.5 +17.8 55 +32 +32 очень
душно
855.2 979.8 +27.5 +39.5
21 17.12 ЮЗ 2 н/о н/о +22.3 +17.9 76 +27 +27 душно 855.2 982.3 +22.3 +39.5
00 18.12 ЮЗ 2 н/о н/о +20.5 +17.5 83 +25 +25 комфорт 854.4 982.2 +20.5 +39.5
03 18.12 штиль 0 н/о н/о +19.3 +16.9 86 +21 +21 комфорт 854.4 982.8 +19.2 +39.5
06 18.12 Ю 2 н/о н/о +25.9 +16.9 58 +30 +30 душно 857.7 983.3 +19.2
09 18.12 ЮЗ 3 н/о н/о +30.5 +16.4 43 +34 +34 очень
душно
858.3 981.8 +19.2 +31.5
12 18.12 В 2 н/о н/о +35.1 +13.7 28 +36 +36 очень
жарко
857.7 979.0 +19.2 +36.0
15 18.12 В 2 н/о н/о +36.5 +13.7 26 +37 +37 очень
жарко
856.1 976.8 +34.7 +37.4
18 18.12 ЮВ 3 н/о н/о +26.8 +16.0 52 +30 +30 душно 854.4 979.3 +26.8 +37.4
21 18.12 ЮЗ 2 н/о н/о +22.1 +15.3 65 +26 +26 душно 855.4 982.6 +22.1 +37.4

 

Местоположение метеостанции Skukuza (Южная Африка): широта -24.98 долгота 31.60 высота над уровнем моря 271 м.

В архиве по умолчанию представлена погода в Skukuza за последнюю неделю. Архивные данные за месяц целиком и за предыдущие месяцы, начиная с января 2011 года, Вы можете получить, выбрав интересующий диапазон дат из раскрывающегося списка и нажав кнопку "Ввод!".

Внимание! Время в таблицах - всемирное. Для получения местного времени необходимо прибавить поправку, которая в Skukuza равна 2 ч.

Смотрите также архив погоды в соседних городах и на ближайших метеорологических станциях:

Погода в Komatidraai (Южная Африка) (66 км)
Погода в Graskop (Южная Африка) (76 км)
Погода в Graskop-Skool (Южная Африка) (78 км)
Погода в Hoedspruit AFB (Южная Африка) (89 км)
Погода в Mbombela (Южная Африка) (90 км)
Погода в Vuvulane (Свазиленд) (100 км)
Погода в Lydenburg (Южная Африка) (114 км)
Погода в Lydenburg 2 (Южная Африка) (115 км)
Погода в Piggs Peak (Свазиленд) (116 км)
Погода в Maputo (Мозамбик) (142 км)

Пояснения к столбцам:

Ветер - указаны скорость ветра в м/с - средняя за 10 мин, порывы в срок и между сроками (в фигурных скобках) и направление, откуда дует ветер: С - северный, СВ - северо-восточный, В - восточный, ЮВ - юго-восточный, Ю - южный, ЮЗ - юго-западный, З - западный, СЗ - северо-западный.
Видимость - горизонтальная дальность видимости в метрах или километрах. При видимости от 1 до 10 км при отсутствии осадков обычно наблюдается дымка, при ухудшении видимости до 1 км и менее - туман. В сухую погоду видимость может ухудшаться дымом, пылью или мглою.
Явления - указаны атмосферные явления, наблюдавшиеся в срок или в последний час перед сроком; фигурными скобками обозначены явления, наблюдавшиеся между сроками (за 1-3 часа до срока); квадратными скобками обозначены град или гололедные отложения с указанием их диаметра в мм.
Облачность - указаны через наклонную черту общая и нижняя облачность в баллах и высота нижней границы облаков в метрах; квадратными скобками обозначены формы облаков: Ci - перистые, Cs - перисто-слоистые, Cc - перисто-кучевые, Ac - высококучевые, As - высокослоистые, Sc - слоисто-кучевые, Ns - слоисто-дождевые, Cu - кучевые, Cb - кучево-дождевые. Подробнее классификацию облаков см. в Атласе облаков (PDF).
T - Температура воздуха - температура, измеренная на высоте 2 м над землей.
Td - Температура точки росы - температура, при понижении до которой содержащийся в воздухе водяной пар достигнет насыщения.
f - Относительная влажность воздуха - влажноcть воздуха, измеренная на высоте 2 м над землей.
Te - Эффективная температура - температура, которую ощущает одетый по сезону человек в тени. Характеристика душности погоды. При расчете учитывается влияние влажности воздуха и скорости ветра на теплоощущения человека.
Tes - Эффективная температура на солнце - температура, которую ощущает человек, с поправкой на солнечный нагрев. Характеристика знойности погоды. Зависит от высоты солнца над горизонтом, облачности и скорости ветра. Ночью, в пасмурную погоду, а также при ветре 12 м/с и более поправка равна нулю.
P - Атмосферное давление - приведенное к уровню моря атмосферное давление.
Po - Атмосферное давление - измеренное на уровне метеостанции атмосферное давление.
Tmin - Минимальная температура - минимум температуры воздуха на высоте 2 м над землей.
Tmax - Максимальная температура - максимум температуры воздуха на высоте 2 м над землей.
R - Количество осадков - Количество выпавших осадков за период времени, мм. При наведении курсора мыши на число - период времени, за который выпало указанное количество осадков.
R24 - Количество осадков - Количество выпавших осадков за 24 часа, мм.
S - Снежный покров - Высота снежного покрова, см. При наведении курсора мыши на число - состояние снежного покрова и степень покрытия местности в баллах.